Location: �clusier
(49.9361°N, 2.7869°E)
Time: 06:05:40
(UTC+00:00)

Cosmos 1605 Rocket - Visible Passes

Search period start: 26 October 2021 00:00
Search period end: 05 November 2021 00:00
Orbit: 946 x 1005 km, 82.9° (Epoch: 25 October)

Date Brightness Start Highest point End Pass type
(mag) Time Alt. Az. Time Alt. Az. Time Alt. Az.
26 Oct 5.5 04:15:07 10° N 04:21:05 39° ENE 04:26:58 10° SE visible
26 Oct 4.0 17:49:27 10° S 17:55:37 61° E 18:01:55 10° NNE visible
26 Oct 5.9 19:36:07 10° SW 19:41:29 28° WNW 19:46:56 10° N visible
27 Oct 6.9 02:56:42 10° NNE 02:59:49 14° NE 03:02:55 10° E visible
27 Oct 4.6 04:40:16 10° N 04:46:39 63° ENE 04:52:56 10° SSE visible
27 Oct 4.1 18:14:35 10° S 18:20:55 84° W 18:27:21 10° N visible
27 Oct 6.5 20:03:09 10° W 20:07:22 18° WNW 20:11:37 10° NNW visible
28 Oct 6.3 03:20:59 10° NNE 03:25:49 22° ENE 03:30:36 10° ESE visible
28 Oct 4.0 05:05:36 10° N 05:12:02 82° W 05:18:22 10° S visible
28 Oct 4.9 18:40:13 10° SSW 18:46:22 52° WNW 18:52:37 10° N visible
28 Oct 7.0 20:31:38 10° WNW 20:33:28 11° NW 20:35:18 10° NW visible
29 Oct 5.6 03:45:50 10° N 03:51:38 34° ENE 03:57:20 10° SE visible
29 Oct 4.2 05:31:07 10° NNW 05:37:15 50° W 05:43:18 10° SSW visible
29 Oct 4.2 17:20:13 10° SSE 17:26:19 53° E 17:32:30 10° NNE visible
29 Oct 5.7 19:06:24 10° SW 19:12:00 32° WNW 19:17:42 10° N visible
30 Oct 6.9 02:27:54 10° NNE 02:30:14 12° NE 02:32:33 10° ENE visible
30 Oct 4.7 04:10:57 10° N 04:17:14 55° ENE 04:23:26 10° SSE visible
30 Oct 4.8 05:56:52 10° NNW 06:02:17 30° W 06:07:40 10° SW visible
30 Oct 4.0 17:45:12 10° S 17:51:33 86° E 17:57:59 10° N visible
30 Oct 6.4 19:33:13 10° WSW 19:37:50 21° WNW 19:42:30 10° NNW visible
31 Oct 6.4 02:51:50 10° NNE 02:56:17 19° ENE 03:00:42 10° ESE visible
31 Oct 4.0 04:36:14 10° N 04:42:40 88° E 04:49:00 10° S visible
31 Oct 4.7 18:10:42 10° SSW 18:16:57 59° WNW 18:23:18 10° N visible
31 Oct 6.9 20:01:05 10° W 20:03:51 13° NW 20:06:39 10° NNW visible
01 Nov 5.8 03:16:35 10° N 03:22:09 30° ENE 03:27:38 10° SE visible
01 Nov 4.1 05:01:41 10° NNW 05:07:56 57° W 05:14:05 10° S visible
01 Nov 4.3 16:51:01 10° SSE 16:57:00 46° E 17:03:04 10° NNE visible
01 Nov 5.5 18:36:44 10° SW 18:42:32 37° WNW 18:48:26 10° N visible
02 Nov 7.0 01:59:38 10° NE 02:00:38 10° NE 02:01:36 10° ENE visible
02 Nov 4.9 03:41:38 10° N 03:47:49 48° ENE 03:53:53 10° SSE visible
02 Nov 4.6 05:27:22 10° NNW 05:33:01 34° W 05:38:35 10° SSW visible
02 Nov 4.0 17:15:52 10° S 17:22:11 76° E 17:28:37 10° NNE visible
02 Nov 6.3 19:03:21 10° WSW 19:08:19 23° WNW 19:13:19 10° N visible
03 Nov 6.5 02:22:45 10° NNE 02:26:45 17° ENE 02:30:43 10° E visible
03 Nov 4.1 04:06:52 10° N 04:13:18 78° E 04:19:36 10° SSE visible
03 Nov 5.1 05:53:24 10° NW 05:57:56 21° W 06:02:26 10° SW visible
03 Nov 4.5 17:41:14 10° SSW 17:47:33 67° WNW 17:53:58 10° N visible
03 Nov 6.8 19:30:51 10° W 19:34:17 15° NW 19:37:44 10° NNW visible
04 Nov 5.9 02:47:22 10° N 02:52:40 27° ENE 02:57:54 10° ESE visible
04 Nov 3.9 04:32:16 10° NNW 04:38:36 65° W 04:44:49 10° S visible
04 Nov 5.3 18:07:07 10° SW 18:13:05 42° WNW 18:19:09 10° N visible
